SHT22A EGLL-EGJB

Flight info

Callsign SHT22A
Flight time 0h 36m
Altitude 24000
Route GASGU N514 EVTES N621 SAM N63 LELNA
Aircraft A319/M-SDE3FGHIRWY/LB1

Departure

Time 2026-04-26 10:27
Airport London Heathrow Airport (EGLL)

Arrival

Time 2026-04-26 11:03
Airport Guernsey Airport (EGJB)
Time Latitude Longitude Altitude Speed Heading
2026-04-26 10:02 51.47049 -0.48586 86 ft 0 kts 269°
2026-04-26 10:15 51.47049 -0.48583 86 ft 2 kts 269°
2026-04-26 10:15 51.47050 -0.48554 89 ft 3 kts 264°
2026-04-26 10:15 51.47052 -0.48524 89 ft 3 kts 261°
2026-04-26 10:16 51.47055 -0.48496 87 ft 2 kts 240°
2026-04-26 10:16 51.47068 -0.48476 87 ft 3 kts 198°
2026-04-26 10:16 51.47084 -0.48473 86 ft 0 kts 182°
2026-04-26 10:18 51.47081 -0.48473 89 ft 1 kts 181°
2026-04-26 10:19 51.47029 -0.48473 86 ft 18 kts 180°
2026-04-26 10:19 51.46873 -0.48469 90 ft 25 kts 179°
2026-04-26 10:19 51.46695 -0.48467 86 ft 23 kts 180°
2026-04-26 10:19 51.46606 -0.48466 88 ft 0 kts 179°
2026-04-26 10:25 51.46604 -0.48466 86 ft 1 kts 180°
2026-04-26 10:25 51.46591 -0.48466 87 ft 3 kts 180°
2026-04-26 10:25 51.46551 -0.48466 89 ft 10 kts 180°
2026-04-26 10:25 51.46482 -0.48438 90 ft 11 kts 123°
2026-04-26 10:26 51.46479 -0.48377 87 ft 0 kts 89°
2026-04-26 10:26 51.46479 -0.48342 87 ft 14 kts 89°
2026-04-26 10:26 51.46480 -0.47846 87 ft 77 kts 89°
2026-04-26 10:27 51.46485 -0.46657 92 ft 135 kts 90°
2026-04-26 10:27 51.46493 -0.44915 323 ft 164 kts 89°
2026-04-26 10:27 51.46514 -0.43105 1137 ft 161 kts 88°
2026-04-26 10:27 51.46360 -0.41308 1702 ft 177 kts 113°
2026-04-26 10:28 51.45623 -0.39512 2165 ft 204 kts 124°
2026-04-26 10:28 51.44752 -0.37545 2745 ft 228 kts 125°
2026-04-26 10:28 51.43777 -0.35377 3526 ft 247 kts 128°
2026-04-26 10:28 51.42442 -0.33598 4558 ft 256 kts 152°
2026-04-26 10:29 51.40737 -0.32787 5481 ft 266 kts 174°
2026-04-26 10:29 51.38892 -0.33156 5865 ft 270 kts 200°
2026-04-26 10:29 51.37312 -0.34766 5984 ft 272 kts 222°
2026-04-26 10:29 51.35929 -0.36820 6010 ft 272 kts 222°
2026-04-26 10:30 51.34541 -0.38866 6014 ft 271 kts 222°
2026-04-26 10:30 51.33145 -0.40909 6088 ft 276 kts 222°
2026-04-26 10:30 51.31722 -0.42999 6316 ft 276 kts 224°
2026-04-26 10:30 51.30562 -0.45414 6328 ft 275 kts 240°
2026-04-26 10:31 51.29854 -0.48238 6335 ft 275 kts 254°
2026-04-26 10:31 51.29343 -0.51176 6335 ft 274 kts 254°
2026-04-26 10:31 51.28816 -0.54125 6685 ft 278 kts 253°
2026-04-26 10:31 51.28279 -0.57093 7718 ft 279 kts 253°
2026-04-26 10:32 51.27718 -0.60084 8702 ft 282 kts 252°
2026-04-26 10:32 51.27134 -0.63100 9643 ft 287 kts 252°
2026-04-26 10:32 51.26533 -0.66154 10556 ft 292 kts 252°
2026-04-26 10:32 51.25896 -0.69373 10938 ft 316 kts 252°
2026-04-26 10:33 51.25219 -0.72812 11481 ft 331 kts 252°
2026-04-26 10:33 51.24528 -0.76342 12290 ft 335 kts 252°
2026-04-26 10:33 51.23833 -0.79899 13125 ft 338 kts 252°
2026-04-26 10:33 51.23137 -0.83449 13917 ft 341 kts 252°
2026-04-26 10:34 51.22415 -0.87120 14717 ft 344 kts 252°
2026-04-26 10:34 51.21694 -0.90775 15474 ft 347 kts 252°
2026-04-26 10:34 51.20915 -0.94430 16213 ft 350 kts 246°
2026-04-26 10:34 51.19746 -0.97848 16931 ft 353 kts 235°
2026-04-26 10:35 51.18275 -1.00929 17648 ft 355 kts 232°
2026-04-26 10:35 51.16751 -1.04047 18345 ft 358 kts 232°
2026-04-26 10:35 51.15215 -1.07194 19027 ft 361 kts 232°
2026-04-26 10:35 51.13669 -1.10362 19671 ft 365 kts 232°
2026-04-26 10:36 51.12101 -1.13570 20310 ft 369 kts 232°
2026-04-26 10:36 51.10518 -1.16807 20934 ft 372 kts 233°
2026-04-26 10:36 51.08882 -1.20022 21529 ft 376 kts 228°
2026-04-26 10:36 51.06928 -1.22827 22104 ft 382 kts 218°
2026-04-26 10:37 51.04697 -1.25164 22665 ft 386 kts 214°
2026-04-26 10:37 51.02422 -1.27477 23209 ft 390 kts 214°
2026-04-26 10:37 51.00132 -1.29808 23734 ft 393 kts 215°
2026-04-26 10:37 50.97816 -1.32168 24181 ft 397 kts 215°
2026-04-26 10:38 50.95477 -1.34509 24299 ft 396 kts 212°
2026-04-26 10:38 50.93048 -1.36481 24335 ft 390 kts 209°
2026-04-26 10:38 50.90627 -1.38411 24330 ft 388 kts 209°
2026-04-26 10:38 50.88218 -1.40339 24326 ft 388 kts 209°
2026-04-26 10:39 50.85812 -1.42264 24326 ft 388 kts 209°
2026-04-26 10:39 50.83403 -1.44188 24324 ft 388 kts 209°
2026-04-26 10:39 50.80994 -1.46109 24313 ft 388 kts 209°
2026-04-26 10:39 50.78585 -1.48025 24314 ft 388 kts 209°
2026-04-26 10:40 50.76177 -1.49935 24319 ft 388 kts 209°
2026-04-26 10:40 50.73765 -1.51846 24314 ft 388 kts 209°
2026-04-26 10:40 50.71352 -1.53754 24311 ft 388 kts 209°
2026-04-26 10:40 50.68942 -1.55657 24306 ft 388 kts 209°
2026-04-26 10:41 50.66529 -1.57561 24314 ft 388 kts 209°
2026-04-26 10:41 50.64235 -1.59372 24314 ft 388 kts 209°
2026-04-26 10:41 50.62154 -1.61015 24311 ft 388 kts 209°
2026-04-26 10:41 50.59743 -1.62921 24309 ft 387 kts 209°
2026-04-26 10:42 50.57334 -1.64825 24307 ft 387 kts 209°
2026-04-26 10:42 50.54925 -1.66721 24295 ft 387 kts 208°
2026-04-26 10:42 50.52515 -1.68613 24297 ft 387 kts 208°
2026-04-26 10:42 50.50102 -1.70508 24299 ft 388 kts 208°
2026-04-26 10:43 50.47690 -1.72399 24299 ft 388 kts 208°
2026-04-26 10:43 50.45307 -1.74258 24294 ft 388 kts 208°
2026-04-26 10:43 50.42890 -1.76142 24296 ft 388 kts 208°
2026-04-26 10:43 50.40471 -1.78027 24301 ft 388 kts 208°
2026-04-26 10:44 50.38055 -1.79906 24297 ft 388 kts 208°
2026-04-26 10:44 50.35638 -1.81787 24293 ft 388 kts 208°
2026-04-26 10:44 50.33222 -1.83670 24294 ft 387 kts 208°
2026-04-26 10:44 50.30809 -1.85548 24295 ft 387 kts 208°
2026-04-26 10:45 50.28393 -1.87428 24165 ft 388 kts 208°
2026-04-26 10:45 50.25977 -1.89302 23913 ft 387 kts 208°
2026-04-26 10:45 50.23571 -1.91166 23664 ft 385 kts 208°
2026-04-26 10:45 50.21174 -1.93015 23414 ft 383 kts 208°
2026-04-26 10:46 50.18799 -1.94843 23125 ft 377 kts 208°
2026-04-26 10:46 50.16456 -1.96646 22693 ft 374 kts 208°
2026-04-26 10:46 50.14135 -1.98434 22237 ft 370 kts 208°
2026-04-26 10:46 50.11839 -2.00205 21788 ft 366 kts 208°
2026-04-26 10:47 50.09573 -2.01950 21324 ft 361 kts 208°
2026-04-26 10:47 50.07350 -2.03725 20695 ft 358 kts 213°
2026-04-26 10:47 50.05453 -2.06218 20053 ft 356 kts 225°
2026-04-26 10:47 50.03697 -2.08901 19574 ft 352 kts 225°
2026-04-26 10:48 50.01952 -2.11543 19067 ft 348 kts 224°
2026-04-26 10:48 50.00222 -2.14151 18600 ft 344 kts 224°
2026-04-26 10:48 49.98511 -2.16725 18123 ft 341 kts 224°
2026-04-26 10:48 49.96817 -2.19272 17647 ft 337 kts 224°
2026-04-26 10:49 49.95138 -2.21794 17177 ft 334 kts 224°
2026-04-26 10:49 49.93479 -2.24288 16710 ft 330 kts 224°
2026-04-26 10:49 49.91837 -2.26757 16240 ft 328 kts 224°
2026-04-26 10:49 49.90206 -2.29205 15784 ft 325 kts 224°
2026-04-26 10:50 49.88588 -2.31635 15333 ft 322 kts 224°
2026-04-26 10:50 49.87503 -2.33264 15013 ft 321 kts 224°
2026-04-26 10:50 49.85391 -2.36436 14413 ft 318 kts 224°
2026-04-26 10:50 49.83809 -2.38808 13956 ft 316 kts 224°
2026-04-26 10:51 49.82229 -2.41168 13506 ft 315 kts 224°
2026-04-26 10:51 49.79097 -2.45826 12601 ft 310 kts 224°
2026-04-26 10:51 49.77551 -2.48135 12161 ft 308 kts 224°
2026-04-26 10:52 49.76009 -2.50437 11699 ft 307 kts 224°
2026-04-26 10:52 49.74472 -2.52725 11263 ft 306 kts 224°
2026-04-26 10:52 49.72941 -2.54999 10824 ft 304 kts 224°
2026-04-26 10:52 49.71425 -2.57247 10543 ft 298 kts 224°
2026-04-26 10:53 49.69944 -2.59442 10264 ft 293 kts 224°
2026-04-26 10:53 49.68487 -2.61603 10109 ft 290 kts 224°
2026-04-26 10:53 49.67034 -2.63759 9984 ft 290 kts 224°
2026-04-26 10:54 49.64099 -2.68105 9230 ft 291 kts 224°
2026-04-26 10:54 49.62635 -2.70271 8621 ft 291 kts 223°
2026-04-26 10:54 49.61185 -2.72414 8032 ft 287 kts 223°
2026-04-26 10:54 49.59741 -2.74542 7413 ft 286 kts 223°
2026-04-26 10:55 49.58311 -2.76646 6786 ft 284 kts 223°
2026-04-26 10:55 49.56912 -2.78704 6251 ft 280 kts 223°
2026-04-26 10:55 49.55539 -2.80724 6039 ft 263 kts 223°
2026-04-26 10:55 49.54668 -2.82006 5991 ft 250 kts 223°
2026-04-26 10:56 49.53433 -2.84784 5633 ft 235 kts 248°
2026-04-26 10:56 49.52861 -2.87111 5258 ft 230 kts 250°
2026-04-26 10:56 49.52335 -2.89408 4879 ft 225 kts 250°
2026-04-26 10:56 49.51748 -2.91596 4470 ft 219 kts 234°
2026-04-26 10:57 49.50749 -2.93304 4020 ft 212 kts 219°
2026-04-26 10:57 49.49444 -2.94160 3522 ft 203 kts 186°
2026-04-26 10:57 49.48047 -2.94346 3023 ft 200 kts 181°
2026-04-26 10:57 49.46670 -2.94338 2508 ft 195 kts 165°
2026-04-26 10:58 49.45492 -2.93403 2066 ft 188 kts 146°
2026-04-26 10:58 49.44421 -2.92340 2008 ft 182 kts 141°
2026-04-26 10:58 49.43670 -2.90823 2027 ft 179 kts 116°
2026-04-26 10:58 49.43223 -2.89047 2012 ft 178 kts 105°
2026-04-26 10:59 49.42991 -2.87184 2010 ft 178 kts 99°
2026-04-26 10:59 49.42797 -2.85311 2011 ft 177 kts 97°
2026-04-26 10:59 49.42818 -2.83424 2010 ft 177 kts 85°
2026-04-26 10:59 49.42903 -2.81576 2004 ft 165 kts 87°
2026-04-26 11:00 49.42954 -2.79958 2006 ft 141 kts 88°
2026-04-26 11:00 49.42996 -2.78509 2005 ft 132 kts 88°
2026-04-26 11:00 49.43035 -2.77118 2004 ft 129 kts 88°
2026-04-26 11:00 49.43073 -2.75745 2012 ft 128 kts 88°
2026-04-26 11:01 49.43109 -2.74379 2014 ft 128 kts 89°
2026-04-26 11:01 49.43146 -2.73008 1916 ft 128 kts 88°
2026-04-26 11:01 49.43183 -2.71642 1734 ft 128 kts 88°
2026-04-26 11:01 49.43220 -2.70281 1550 ft 127 kts 88°
2026-04-26 11:02 49.43255 -2.68940 1369 ft 128 kts 89°
2026-04-26 11:02 49.43292 -2.67559 1186 ft 129 kts 89°
2026-04-26 11:02 49.43330 -2.66179 1001 ft 130 kts 89°
2026-04-26 11:02 49.43365 -2.64795 816 ft 130 kts 89°
2026-04-26 11:03 49.43402 -2.63413 639 ft 130 kts 88°
2026-04-26 11:03 49.43446 -2.62031 432 ft 130 kts 90°
2026-04-26 11:03 49.43484 -2.60687 315 ft 114 kts 88°
2026-04-26 11:03 49.43507 -2.59855 324 ft 35 kts 88°
2026-04-26 11:04 49.43511 -2.59708 326 ft 7 kts 88°
2026-04-26 11:04 49.43513 -2.59609 326 ft 12 kts 87°
2026-04-26 11:04 49.43518 -2.59453 331 ft 15 kts 87°
2026-04-26 11:04 49.43522 -2.59287 333 ft 15 kts 88°
2026-04-26 11:05 49.43449 -2.59199 334 ft 18 kts 177°
2026-04-26 11:05 49.43372 -2.59262 330 ft 16 kts 264°
2026-04-26 11:05 49.43366 -2.59454 329 ft 21 kts 266°
2026-04-26 11:05 49.43355 -2.59612 327 ft 12 kts 235°
2026-04-26 11:06 49.43280 -2.59623 324 ft 9 kts 179°
2026-04-26 11:06 49.43253 -2.59621 327 ft 3 kts 178°
2026-04-26 11:06 49.43251 -2.59621 327 ft 0 kts 178°